Powrót do katalogu

O3B MPOWER F05

AktywnyŁącznośćMEO
NORAD 58346·PAYLOAD·🇱🇺 Luxembourg

Wystrzelony Nov 12, 2023 z Cape Canaveral Space Force Station

Loading…

Następne Przeloty (najbliższe 24 godziny)

TLE

ŚwieżeSource: CelesTrak SupGP

Epoka: Sep 13, 2026, 15:00 UTC

1 58346C 23175A   26256.62500000  .00000000  00000+0  00000+0 0  2562
2 58346   0.0603   4.0909 0006213 185.1475 107.5118  5.00115708    13

Śledź O3B MPOWER F05 w czasie rzeczywistym z AllMySat

Download on the App Store